Вернуться в каталог

KUIPER-00482

АктивенСвязьLEO
NORAD 68877·PAYLOAD·🇺🇸 United States

Запущен Apr 28, 2026 с Cape Canaveral Space Force Station

Loading…

Ближайшие Пролёты (ближайшие 24 часа)

TLE

СвежийSource: CelesTrak SupGP

Эпоха: Sep 14, 2026, 23:07 UTC

1 68877C 26095P   26257.96387732 -.00000928  00000+0 -12154-3 0  2578
2 68877  51.9002 203.6713 0001338  24.5601 191.6618 14.79923266    12

Отслеживайте KUIPER-00482 в реальном времени с AllMySat

Download on the App Store